Flag for Germany Weather past 2 weeks in Langen, Hesse, Germany

Now
57 °F

Partly sunny.


Feels Like: 55 °F
Forecast: 47 / 64 °F
Wind: 8 mph from Northwest

Location: Frankfurt-M-Flughafen Airport

Current Time: Aug 23, 2014 at 8:59:45 PM

Latest Report: Aug 23, 2014 at 8:20 PM


Visibility: N/A

Pressure: 29.98 "Hg

Humidity: 72%

Dew point: 48 °F

Location of LangenLocation

Historic Weather in Langen — Graph

°F

Langen temperature yesterday

Maximum temperature yesterday: 70 °F (at 4:50 PM)
Minimum temperature yesterday: 46 °F (at 3:50 AM)
Average temperature yesterday: 59 °F

Past Weeks' High & Low Weather Summary

 TemperatureHumidityPressure
High79 °F (Aug 8, 7:20 PM)100% (Aug 10, 7:20 AM)30.09 "Hg (Aug 10, 7:20 AM)
Low46 °F (Aug 20, 5:20 AM)33% (Aug 12, 6:20 PM)29.65 "Hg (Aug 13, 2:20 PM)
Average62 °F73%29.91 "Hg
* Reported Aug 8 7:20 PM — Aug 23 7:50 PM, Langen, Weather by CustomWeather, © 2014

Note: Actual official high and low records may vary slightly from our data, if they occured in-between our weather recording intervals... More about our weather records

Advertising

Langen weather history for previous 24 hours

 ConditionsComfort  
Time TempWeatherWind HumidityBarometerVisibility
7:50 PM
Aug 23
55 °FScattered showers. Partly sunny.9 mph82%29.95 "HgN/A
7:20 PM57 °FSprinkles. Broken clouds.7 mph77%29.95 "HgN/A
6:50 PM55 °FRain showers. Partly sunny.14 mph88%29.95 "HgN/A
6:20 PM59 °FSprinkles. Partly sunny.12 mph72%29.95 "HgN/A
5:50 PM64 °FSprinkles. Broken clouds.10 mph56%29.92 "HgN/A
5:20 PM64 °FBroken clouds.12 mph60%29.92 "HgN/A
4:50 PM66 °FBroken clouds.13 mph56%29.92 "HgN/A
4:20 PM64 °FBroken clouds.13 mph56%29.92 "HgN/A
3:50 PM64 °FBroken clouds.12 mph60%29.92 "HgN/A
3:20 PM63 °FBroken clouds.12 mph64%29.95 "HgN/A
2:50 PM63 °FBroken clouds.15 mph64%29.95 "HgN/A
2:20 PM63 °FBroken clouds.14 mph64%29.95 "HgN/A
1:50 PM63 °FScattered showers. Broken clouds.13 mph64%29.95 "HgN/A
1:20 PM64 °FScattered showers. Broken clouds.13 mph64%29.95 "HgN/A
12:50 PM64 °FBroken clouds.13 mph60%29.95 "HgN/A
12:20 PM63 °FBroken clouds.10 mph68%29.95 "HgN/A
11:50 AM61 °FScattered clouds.9 mph72%29.95 "HgN/A
11:20 AM61 °FScattered clouds.9 mph72%29.95 "HgN/A
10:50 AM61 °FScattered clouds.12 mph72%29.95 "HgN/A
10:20 AM61 °FPartly sunny.10 mph72%29.95 "HgN/A
9:50 AM61 °FBroken clouds.10 mph77%29.95 "HgN/A
9:20 AM59 °FBroken clouds.8 mph77%29.95 "HgN/A
8:50 AM57 °FPartly sunny.8 mph77%29.95 "HgN/A
8:20 AM57 °FPartly sunny.8 mph77%29.95 "HgN/A
7:50 AM57 °FPartly sunny.10 mph77%29.95 "HgN/A
7:20 AM57 °FPartly cloudy.9 mph77%29.95 "HgN/A
6:50 AM55 °FPassing clouds.7 mph82%29.95 "HgN/A
6:20 AM55 °FPassing clouds.6 mph82%29.92 "HgN/A
5:50 AM55 °FPassing clouds.5 mph82%29.92 "HgN/A
5:20 AM57 °FPassing clouds.6 mph77%29.92 "HgN/A
4:50 AM55 °FClear.2 mph82%29.92 "Hg10 mi
4:20 AM55 °FPassing clouds.3 mph82%29.92 "HgN/A
3:50 AM55 °FPartly cloudy.3 mph82%29.95 "HgN/A
3:20 AM55 °FClear.2 mph77%29.92 "Hg10 mi
2:50 AM55 °FClear.3 mph77%29.92 "Hg10 mi
2:20 AM55 °FClear.3 mph77%29.92 "Hg10 mi
1:50 AM57 °FClear.5 mph72%29.95 "Hg10 mi
1:20 AM57 °FClear.3 mph72%29.95 "Hg10 mi
12:50 AM57 °FClear.5 mph72%29.92 "Hg10 mi
12:20 AM59 °FClear.6 mph68%29.92 "Hg10 mi
11:50 PM
Aug 22
59 °FClear.7 mph63%29.95 "Hg10 mi
11:20 PM61 °FClear.7 mph59%29.92 "Hg10 mi
10:50 PM63 °FClear.7 mph56%29.92 "Hg10 mi
10:20 PM63 °FClear.9 mph56%29.92 "Hg10 mi
9:50 PM63 °FClear.8 mph56%29.92 "Hg10 mi
9:20 PM64 °FSunny.7 mph52%29.92 "Hg10 mi
8:50 PM64 °FSunny.8 mph49%29.92 "Hg10 mi
8:20 PM66 °FSunny.8 mph46%29.92 "Hg10 mi
Weather by CustomWeather, © 2014

See weather overviewHow to use our weather pages